La Junta, CO

5:49 PM MDT on April 26, 2018 (GMT -0600)
La Junta Municipal

Weather History for KLHX - August, 2012

Change the Weather History Date:

Sunday, August 12, 2012

  Actual Average Record
Temperature  
Mean Temperature 77 °F 77 °F  
Max Temperature 94 °F 91 °F 106 °F (1969)
Min Temperature 60 °F 62 °F 52 °F (1960)
Degree Days  
Heating Degree Days 0 0  
Month to date heating degree days 0 0  
Since 1 June heating degree days 0 17  
Since 1 July heating degree days 0 1  
Cooling Degree Days 12 12  
Month to date cooling degree days 202 149  
Year to date cooling degree days 1373 880  
Since 1 June cooling degree days 1251 807  
Growing Degree Days 26 (Base 50)    
Moisture  
Dew Point 44 °F    
Average Humidity 45    
Maximum Humidity 78    
Minimum Humidity 12    
Precipitation  
Precipitation 0.00 in 0.06 in 0.49 in (2008)
Month to date precipitation 0.11 0.70  
Year to date precipitation 4.06  
Snow  
Snow 0.00 in - - ()
Month to date snowfall 0.0  
Since 1 June snowfall 0.0  
Snow Depth 0.00 in    
Sea Level Pressure  
Sea Level Pressure 29.99 in    
Wind  
Wind Speed 7 mph (North)    
Max Wind Speed 16 mph    
Max Gust Speed 21 mph    
Visibility 10 miles    
Events      
T = Trace of Precipitation, MM = Missing Value Source: NWS Daily Summary

Daily Weather History Graph

Daily Weather History Graph

Search for Another Location

Airport or City:

Astronomy

Aug. 12, 2012 Rise Set
Actual Time 6:06 AM MDT 7:50 PM MDT
Civil Twilight 5:38 AM MDT 8:18 PM MDT
Nautical Twilight 5:04 AM MDT 8:52 PM MDT
Astronomical Twilight 4:27 AM MDT 9:28 PM MDT
Moon 1:23 AM MDT (8/12) 4:15 PM MDT (8/12)
Length of Visible Light 14h 39m
Length of Day
13h 43m
Waning Crescent, 23% of the Moon is Illuminated
Aug 12
Waning Crescent
Aug 17
New
Aug 24
First Quarter
Aug 31
Full
Sep 8
Last Quarter

Hourly Weather History & Observations

Time (MDT) Temp. Dew Point Humidity Pressure Visibility Wind Dir Wind Speed Gust Speed Precip Events Conditions
12:53 AM 70.0 °F 59.0 °F 68% 29.90 in 10.0 mi WSW 4.6 mph - N/A   Mostly Cloudy
1:53 AM 68.0 °F 57.9 °F 70% 29.92 in 10.0 mi WNW 9.2 mph - N/A   Clear
2:53 AM 64.9 °F 57.9 °F 78% 29.93 in 10.0 mi WNW 6.9 mph - N/A   Clear
3:53 AM 64.0 °F 55.9 °F 75% 29.94 in 10.0 mi WNW 6.9 mph - N/A   Clear
4:53 AM 63.0 °F 54.0 °F 72% 29.98 in 10.0 mi WNW 6.9 mph - N/A   Clear
5:53 AM 61.0 °F 52.0 °F 72% 30.01 in 10.0 mi NNW 9.2 mph - N/A   Clear
6:53 AM 61.0 °F 52.0 °F 72% 30.03 in 10.0 mi NW 3.5 mph - N/A   Clear
7:53 AM 68.0 °F 50.0 °F 52% 30.05 in 10.0 mi WNW 6.9 mph - N/A   Clear
8:53 AM 71.1 °F 48.0 °F 44% 30.06 in 10.0 mi NNW 9.2 mph - N/A   Clear
9:53 AM 77.0 °F 45.0 °F 32% 30.06 in 10.0 mi NE 6.9 mph - N/A   Clear
10:53 AM 79.0 °F 42.1 °F 27% 30.05 in 10.0 mi Calm Calm - N/A   Clear
11:53 AM 86.0 °F 37.9 °F 18% 30.02 in 10.0 mi North 6.9 mph 17.3 mph N/A   Clear
12:53 PM 87.1 °F 36.0 °F 16% 30.00 in 10.0 mi NNW 3.5 mph 18.4 mph N/A   Clear
1:53 PM 91.0 °F 37.0 °F 15% 29.99 in 10.0 mi Variable 3.5 mph 16.1 mph N/A   Clear
2:53 PM 91.9 °F 37.0 °F 15% 29.96 in 10.0 mi ENE 10.4 mph 17.3 mph N/A   Clear
3:53 PM 91.9 °F 35.1 °F 13% 29.94 in 10.0 mi NNE 10.4 mph - N/A   Clear
4:53 PM 91.9 °F 34.0 °F 13% 29.94 in 10.0 mi East 10.4 mph 16.1 mph N/A   Clear
5:53 PM 91.0 °F 32.0 °F 12% 29.95 in 10.0 mi ENE 10.4 mph - N/A   Clear
6:53 PM 89.1 °F 33.1 °F 14% 29.96 in 10.0 mi SE 8.1 mph - N/A   Clear
7:53 PM 82.0 °F 34.0 °F 18% 29.98 in 10.0 mi East 9.2 mph - N/A   Clear
8:53 PM 79.0 °F 35.1 °F 20% 30.01 in 10.0 mi South 8.1 mph - N/A   Clear
9:53 PM 79.0 °F 45.0 °F 30% 30.02 in 10.0 mi SSE 3.5 mph - N/A   Clear
10:53 PM 75.9 °F 46.0 °F 35% 30.02 in 10.0 mi SSE 8.1 mph - N/A   Clear
11:53 PM 72.0 °F 37.9 °F 29% 30.01 in 10.0 mi East 8.1 mph - N/A   Clear